Vertical_Velocity
-4 1 -4 -4 -4 -4 -1 -1 0 3 -6 -0 -1 -5 -1 -5 -8 -7 -5 -1 -1 -1 3 -1 1 -0 7 -4 20 0 1 1 1 1 -3 3 2 -0 2 3 2 -1 2 2
6 -8 -3 -3 -0 2 -0 -2 2 -14 1 -3 -5 -5 7 12 -1 -7 0 -1 -3 -10 20 -9 1 6 7 1 4 5 2 -2 0 1 6 -0 1 6 5 7 -0 -0 0 1
-7 -4 -3 -2 2 -5 -2 -2 -4 5 -12 -12 18 -5 -7 -6 -3 -13 7 23 31 8 -2 -4 -6 3 14 13 4 7 5 1 2 7 4 0 5 2 -0 -3 -1 1 4 2
-4 -3 -2 -1 0 -5 5 -8 -3 0 -4 4 -8 -14 -5 -8 -7 9 2 7 10 10 2 4 9 -1 9 6 19 7 3 3 0 4 3 8 7 9 9 2 3 4 0 1
-3 -1 -0 -1 -1 -3 -3 -4 -2 -4 -1 -1 1 4 1 -2 -9 -9 0 0 -16 10 17 6 22 15 -11 -14 -9 -8 3 6 2 1 3 1 2 4 5 1 0 -5 2 1
-4 -4 -3 -4 -4 -6 -12 0 -4 10 13 0 5 14 10 -7 6 7 -13 -4 -6 -2 6 7 -2 4 -10 1 7 3 -0 8 8 4 8 5 5 6 1 -1 2 -2 6 -4
-6 -0 -2 -3 -4 2 -1 -12 -3 2 3 5 12 -22 10 4 0 -2 -10 1 11 6 3 3 4 3 0 -0 4 0 10 -5 -10 6 5 8 8 6 5 0 10 -6 0 3
3 15 -4 -7 -3 -0 -3 -7 7 2 3 4 -14 1 3 2 3 -4 -5 -0 20 11 15 10 9 -0 4 4 5 4 1 10 1 -5 -1 -8 -15 2 8 4 1 -4 -4 -1
2 -1 -7 -4 -4 -6 -12 -1 -0 -2 6 5 1 -3 5 0 1 4 1 -23 6 7 15 14 10 9 14 13 3 5 6 5 6 1 4 7 6 10 12 3 -2 -9 -0 -0
-4 6 -4 -3 -7 -0 -6 -5 6 2 1 -2 2 3 7 -9 1 -2 6 -1 -7 -15 4 7 20 1 3 10 11 11 4 3 8 3 4 8 4 6 4 5 7 3 5 6
-3 -4 4 -8 -3 -4 0 -1 -3 -4 1 4 1 8 -1 4 -6 4 2 -4 2 4 0 -9 4 4 6 -0 6 9 13 8 5 6 2 -7 -15 4 7 8 1 2 -0 2
-4 -0 2 1 -3 -4 -5 0 -1 1 -2 0 -1 11 -4 -8 -4 -3 1 3 -6 -1 -3 3 2 -11 -2 3 1 -4 7 12 9 9 7 6 13 5 -10 2 7 -1 1 6
-3 -3 4 3 -2 -7 5 -2 -2 -6 -3 -3 2 8 -3 -2 1 1 2 -2 14 7 1 1 -6 -1 -9 -17 -4 3 0 2 4 6 10 5 8 3 7 7 2 3 1 -0
-2 -1 -1 5 -0 -4 -1 -0 2 -4 1 3 -2 -3 -9 0 3 1 -4 -1 4 7 6 4 2 2 -7 -4 -8 -10 -2 -0 0 4 2 3 2 3 4 1 3 6 1 3
-2 -2 -1 -1 -2 -2 -2 -1 -0 8 -4 3 1 5 -2 -4 -7 -3 -1 -0 -5 -2 -7 -5 -5 -1 -5 -4 -4 0 -1 -11 -4 -4 0 -2 0 6 6 7 1 1 6 2
-2 -0 -1 -5 -1 -2 -1 -1 -2 -2 -1 1 -9 12 -17 1 3 -3 -2 -1 -2 -2 -5 1 -1 -5 -9 -7 -8 -3 -5 3 -2 -1 -5 -3 -4 -4 -1 1 1 5 0 6
-1 -2 -1 -0 -1 0 -1 -10 -2 1 -0 2 3 9 -7 0 -3 -1 3 -2 -3 -3 -5 -5 0 3 3 1 -9 -8 -2 -0 -1 -1 -7 -3 -1 -7 -11 -5 -3 2 1 2
-1 -0 2 0 -1 0 5 -4 -2 -1 -2 -1 -4 -4 -2 -4 -2 -8 3 -4 -2 1 1 -2 -7 -10 5 2 10 10 -4 -8 -7 -4 -4 -5 -4 -1 5 -0 -5 -8 -16 -14
-2 4 -2 0 -2 -4 -0 -7 -6 -7 -5 -8 0 -4 -2 -2 -12 9 -6 -4 -3 -3 -0 2 4 4 -0 -3 -9 -4 1 6 1 -2 -1 0 -4 1 -1 -2 -1 0 3 -0
1 2 2 -1 2 -1 -1 -3 -3 0 -17 2 -4 -3 -2 -2 -3 31 -4 -1 1 -1 -2 -0 1 0 1 -2 3 1 -13 -9 -3 -2 -2 -0 -6 3 -2 -6 -9 1 -1 -0
2 3 -4 -1 -1 -8 5 -2 -2 1 10 0 -5 -3 -3 -3 -1 -6 -4 -4 -3 -2 -4 -2 -4 -3 -2 -4 -4 -3 -1 -2 -4 -2 -5 -7 -2 -3 -3 -3 -1 -5 -5 -3
-8 -7 -6 3 5 -11 -3 1 -5 9 -4 -5 -5 -2 -4 -4 -3 -5 -6 -4 -4 -3 -5 -4 -4 -5 -6 -3 -0 -1 -5 -3 -1 -0 0 2 4 -2 -4 -7 -4 -6 -7 -4
-2 -16 -14 -12 -11 -3 -0 1 -1 -3 -4 -4 -3 -1 -4 -4 -4 -4 -2 -3 -2 -2 -3 -3 -4 -5 -4 -3 -2 -1 -1 -2 -2 -4 -5 -2 5 7 0 -2 -4 -2 -2 -9
-2 1 -6 1 -7 -4 -0 1 -1 -5 -2 -3 -4 -2 -4 -3 -3 -2 -2 -2 -2 -3 -5 -5 -4 -4 -3 -3 -1 -1 -0 0 1 0 -2 -4 -9 -12 -8 -7 -8 -2 7 3
-3 -1 -2 -2 -3 3 -4 -1 -2 -3 -1 -2 -2 -1 -3 -2 -3 -2 -3 -3 -4 -3 -3 -4 -5 -4 -0 -1 -3 -1 -1 -2 -0 2 2 3 1 1 -0 -2 -9 -7 -0 -12
-5 -1 -8 -9 2 -2 1 -2 3 -2 -3 0 -1 -2 -2 -2 -3 -3 -3 -4 -5 -4 -3 -1 -3 -3 -3 -1 1 -1 -1 1 -2 -1 -1 -1 -2 1 1 -0 5 8 1 1
Height
3107 3113 3111 3110 3110 3111 3110 3108 3105 3104 3102 3099 3097 3094 3093 3092 3090 3087 3086 3087 3089 3092 3097 3099 3102 3106 3111 3112 3117 3112 3114 3117 3122 3126 3130 3134 3137 3144 3147 3150 3152 3154 3159 3162
3111 3110 3109 3109 3109 3109 3106 3104 3101 3100 3098 3096 3093 3091 3091 3081 3078 3077 3079 3081 3084 3088 3091 3088 3091 3099 3102 3102 3107 3109 3108 3110 3115 3119 3124 3128 3133 3137 3140 3144 3146 3150 3154 3157
3109 3111 3108 3109 3108 3105 3104 3102 3099 3098 3095 3091 3087 3087 3082 3079 3076 3074 3071 3078 3082 3082 3081 3082 3084 3087 3093 3097 3098 3101 3102 3104 3107 3113 3116 3121 3125 3130 3132 3134 3139 3143 3147 3149
3109 3108 3107 3107 3106 3104 3102 3100 3098 3096 3093 3088 3087 3084 3081 3081 3076 3072 3068 3070 3071 3075 3076 3079 3079 3080 3081 3085 3089 3093 3095 3097 3099 3105 3108 3112 3116 3121 3126 3130 3134 3136 3139 3142
3109 3108 3107 3106 3104 3102 3102 3097 3095 3094 3090 3087 3084 3084 3088 3083 3077 3073 3069 3066 3066 3068 3068 3069 3069 3069 3067 3068 3074 3079 3087 3091 3093 3097 3101 3105 3110 3115 3119 3121 3125 3128 3131 3134
3107 3105 3105 3103 3103 3100 3098 3096 3089 3089 3087 3085 3083 3084 3087 3084 3082 3078 3075 3071 3070 3067 3062 3059 3057 3058 3060 3066 3071 3073 3079 3086 3090 3089 3093 3098 3102 3106 3111 3113 3117 3120 3123 3126
3108 3108 3105 3103 3103 3102 3100 3095 3086 3085 3084 3083 3082 3086 3093 3088 3084 3081 3079 3075 3071 3067 3063 3058 3052 3052 3056 3061 3065 3070 3073 3074 3077 3081 3084 3089 3093 3097 3101 3104 3106 3112 3114 3116
3107 3107 3107 3104 3104 3103 3102 3100 3098 3093 3081 3080 3086 3090 3092 3089 3084 3082 3080 3075 3070 3065 3058 3054 3051 3048 3049 3053 3057 3061 3065 3070 3073 3074 3075 3079 3082 3087 3091 3094 3098 3102 3106 3108
3107 3107 3105 3104 3103 3105 3102 3101 3101 3097 3088 3087 3087 3092 3090 3089 3084 3080 3077 3076 3070 3064 3059 3051 3050 3048 3047 3047 3048 3053 3057 3062 3065 3068 3071 3073 3075 3077 3081 3083 3087 3091 3096 3099
3104 3106 3106 3105 3104 3105 3103 3103 3100 3097 3092 3085 3083 3086 3090 3088 3085 3081 3077 3073 3070 3065 3059 3053 3049 3046 3046 3044 3045 3048 3050 3053 3057 3060 3062 3064 3067 3069 3071 3075 3078 3082 3086 3089
3101 3104 3106 3104 3104 3104 3104 3103 3101 3099 3098 3093 3085 3090 3091 3089 3085 3082 3077 3073 3070 3066 3061 3056 3051 3049 3046 3046 3044 3044 3046 3048 3050 3052 3054 3056 3061 3063 3063 3066 3068 3071 3075 3078
3100 3103 3103 3105 3103 3102 3102 3103 3101 3099 3099 3097 3094 3094 3090 3090 3085 3084 3081 3078 3074 3070 3064 3060 3056 3053 3049 3047 3045 3044 3044 3044 3045 3047 3048 3051 3052 3054 3057 3058 3057 3060 3064 3067
3099 3101 3101 3102 3104 3102 3102 3101 3100 3099 3098 3097 3095 3093 3092 3091 3089 3087 3085 3082 3079 3074 3070 3064 3058 3054 3051 3050 3048 3045 3044 3043 3042 3041 3042 3041 3042 3042 3045 3046 3047 3050 3053 3055
3096 3099 3099 3098 3099 3099 3100 3099 3098 3097 3096 3093 3093 3093 3092 3091 3089 3087 3084 3082 3079 3075 3070 3067 3063 3058 3053 3051 3049 3047 3043 3041 3040 3039 3038 3038 3038 3038 3038 3039 3041 3042 3043 3046
3095 3096 3097 3097 3096 3096 3096 3096 3096 3095 3094 3093 3092 3092 3091 3090 3088 3086 3083 3081 3078 3074 3071 3067 3064 3061 3057 3052 3048 3046 3044 3041 3038 3036 3034 3034 3034 3034 3032 3032 3033 3034 3035 3035
3092 3094 3094 3092 3094 3094 3093 3092 3092 3092 3091 3091 3091 3090 3089 3088 3087 3085 3083 3080 3077 3073 3070 3067 3064 3061 3058 3054 3047 3044 3041 3038 3037 3035 3032 3030 3028 3028 3028 3028 3027 3027 3025 3026
3090 3090 3092 3093 3093 3092 3090 3084 3087 3089 3089 3090 3090 3089 3088 3087 3085 3082 3081 3077 3074 3071 3068 3063 3060 3056 3052 3048 3044 3041 3038 3034 3031 3029 3028 3027 3026 3023 3023 3021 3020 3019 3019 3018
3088 3090 3091 3091 3092 3091 3082 3080 3083 3085 3086 3087 3087 3086 3086 3084 3082 3080 3078 3073 3070 3066 3062 3059 3055 3052 3047 3042 3038 3035 3034 3031 3025 3023 3020 3020 3019 3019 3017 3015 3013 3012 3011 3011
3084 3088 3087 3089 3088 3082 3079 3077 3079 3081 3083 3083 3084 3083 3083 3082 3079 3077 3073 3070 3067 3063 3059 3055 3050 3045 3042 3037 3032 3030 3027 3025 3021 3017 3014 3013 3011 3011 3008 3008 3007 3005 3004 3004
3079 3084 3086 3085 3085 3079 3075 3074 3076 3079 3077 3078 3079 3079 3079 3078 3078 3077 3071 3068 3064 3059 3055 3051 3047 3042 3036 3031 3028 3023 3019 3018 3017 3014 3010 3007 3005 3003 3000 2999 2999 2998 2996 2995
3074 3077 3078 3081 3080 3074 3072 3071 3073 3077 3078 3074 3074 3074 3074 3074 3074 3070 3067 3064 3061 3056 3052 3048 3043 3038 3032 3026 3023 3020 3016 3012 3011 3009 3006 3003 3000 2996 2994 2992 2988 2987 2986 2985
3063 3068 3071 3076 3077 3069 3065 3068 3069 3071 3068 3068 3069 3069 3068 3068 3067 3066 3063 3060 3057 3053 3049 3044 3040 3035 3029 3025 3020 3016 3013 3010 3006 3004 3002 2998 2994 2990 2986 2982 2980 2978 2976 2974
3060 3056 3060 3062 3062 3061 3061 3062 3062 3063 3064 3064 3064 3065 3064 3064 3063 3062 3060 3057 3054 3050 3046 3042 3037 3032 3027 3022 3018 3014 3010 3007 3003 2999 2995 2993 2990 2986 2981 2976 2973 2969 2965 2962
3051 3053 3053 3056 3055 3055 3056 3058 3059 3058 3060 3060 3060 3060 3060 3060 3060 3058 3056 3054 3051 3047 3044 3040 3035 3030 3025 3020 3016 3011 3007 3003 2999 2995 2990 2985 2980 2976 2974 2970 2966 2961 2956 2951
3045 3045 3047 3049 3051 3051 3050 3053 3054 3054 3054 3055 3055 3055 3056 3056 3056 3055 3053 3051 3048 3044 3041 3036 3032 3027 3022 3017 3012 3007 3002 2998 2994 2990 2985 2981 2975 2970 2965 2960 2956 2953 2950 2945
3036 3039 3039 3041 3045 3045 3046 3046 3048 3048 3048 3049 3050 3051 3052 3052 3052 3051 3050 3047 3044 3041 3037 3033 3027 3022 3017 3013 3008 3003 2998 2993 2988 2984 2979 2974 2968 2963 2957 2951 2946 2943 2938 2935